Year,Month,Day,Hour,Minute,Value (Times are PST for temperature in C)
2014,07,12,00,00,17.30
2014,07,12,00,01,17.30
2014,07,12,00,02,17.30
2014,07,12,00,03,17.30
2014,07,12,00,04,17.30
2014,07,12,00,05,17.30
2014,07,12,00,06,17.30
2014,07,12,00,07,17.30
2014,07,12,00,08,17.20
2014,07,12,00,09,17.20
2014,07,12,00,10,17.20
2014,07,12,00,11,17.20
2014,07,12,00,12,17.20
2014,07,12,00,13,17.20
2014,07,12,00,14,17.20
2014,07,12,00,15,17.10
2014,07,12,00,16,17.10
2014,07,12,00,17,17.10
2014,07,12,00,18,17.10
2014,07,12,00,19,17.10
2014,07,12,00,20,17.00
2014,07,12,00,21,17.00
2014,07,12,00,22,16.90
2014,07,12,00,23,16.90
2014,07,12,00,24,16.90
2014,07,12,00,25,16.90
2014,07,12,00,26,16.80
2014,07,12,00,27,16.80
2014,07,12,00,28,16.80
2014,07,12,00,29,16.80
2014,07,12,00,30,16.80
2014,07,12,00,31,16.80
2014,07,12,00,32,16.80
2014,07,12,00,33,16.80
2014,07,12,00,34,16.70
2014,07,12,00,35,16.70
2014,07,12,00,36,16.70
2014,07,12,00,37,16.70
2014,07,12,00,38,16.70
2014,07,12,00,39,16.70
2014,07,12,00,40,16.70
2014,07,12,00,41,16.70
2014,07,12,00,42,16.70
2014,07,12,00,43,16.70
2014,07,12,00,44,16.70
2014,07,12,00,45,16.70
2014,07,12,00,46,16.70
2014,07,12,00,47,16.70
2014,07,12,00,48,16.70
2014,07,12,00,49,16.60
2014,07,12,00,50,16.60
2014,07,12,00,51,16.60
2014,07,12,00,52,16.60
2014,07,12,00,53,16.60
2014,07,12,00,54,16.60
2014,07,12,00,55,16.60
2014,07,12,00,56,16.60
2014,07,12,00,57,16.60
2014,07,12,00,58,16.60
2014,07,12,00,59,16.50
2014,07,12,01,00,16.60
2014,07,12,01,01,16.50
2014,07,12,01,02,16.50
2014,07,12,01,03,16.60
2014,07,12,01,04,16.60
2014,07,12,01,05,16.60
2014,07,12,01,06,16.60
2014,07,12,01,07,16.60
2014,07,12,01,08,16.60
2014,07,12,01,09,16.60
2014,07,12,01,10,16.60
2014,07,12,01,11,16.60
2014,07,12,01,12,16.60
2014,07,12,01,13,16.60
2014,07,12,01,14,16.60
2014,07,12,01,15,16.50
2014,07,12,01,16,16.50
2014,07,12,01,17,16.50
2014,07,12,01,18,16.50
2014,07,12,01,19,16.50
2014,07,12,01,20,16.40
2014,07,12,01,21,16.40
2014,07,12,01,22,16.40
2014,07,12,01,23,16.40
2014,07,12,01,24,16.40
2014,07,12,01,25,16.30
2014,07,12,01,26,16.30
2014,07,12,01,27,16.30
2014,07,12,01,28,16.30
2014,07,12,01,29,16.30
2014,07,12,01,30,16.20
2014,07,12,01,31,16.20
2014,07,12,01,32,16.20
2014,07,12,01,33,16.20
2014,07,12,01,34,16.10
2014,07,12,01,35,16.10
2014,07,12,01,36,16.10
2014,07,12,01,37,16.10
2014,07,12,01,38,16.10
2014,07,12,01,39,16.10
2014,07,12,01,40,16.00
2014,07,12,01,41,16.00
2014,07,12,01,42,16.00
2014,07,12,01,43,16.00
2014,07,12,01,44,16.00
2014,07,12,01,45,16.00
2014,07,12,01,46,16.00
2014,07,12,01,47,16.00
2014,07,12,01,48,15.90
2014,07,12,01,49,15.90
2014,07,12,01,50,15.90
2014,07,12,01,51,15.90
2014,07,12,01,52,15.90
2014,07,12,01,53,15.90
2014,07,12,01,54,15.90
2014,07,12,01,55,15.90
2014,07,12,01,56,15.90
2014,07,12,01,57,15.90
2014,07,12,01,58,15.80
2014,07,12,01,59,15.90
2014,07,12,02,00,15.80
2014,07,12,02,01,15.80
2014,07,12,02,02,15.80
2014,07,12,02,03,15.80
2014,07,12,02,04,15.80
2014,07,12,02,05,15.80
2014,07,12,02,06,15.80
2014,07,12,02,07,15.80
2014,07,12,02,08,15.80
2014,07,12,02,09,15.80
2014,07,12,02,10,15.80
2014,07,12,02,11,15.90
2014,07,12,02,12,15.90
2014,07,12,02,13,15.90
2014,07,12,02,14,15.90
2014,07,12,02,15,15.90
2014,07,12,02,16,15.90
2014,07,12,02,17,15.90
2014,07,12,02,18,15.90
2014,07,12,02,19,15.90
2014,07,12,02,20,15.90
2014,07,12,02,21,15.90
2014,07,12,02,22,15.90
2014,07,12,02,23,15.90
2014,07,12,02,24,15.80
2014,07,12,02,25,15.80
2014,07,12,02,26,15.80
2014,07,12,02,27,15.80
2014,07,12,02,28,15.70
2014,07,12,02,29,15.70
2014,07,12,02,30,15.60
2014,07,12,02,31,15.50
2014,07,12,02,32,15.50
2014,07,12,02,33,15.40
2014,07,12,02,34,15.40
2014,07,12,02,35,15.40
2014,07,12,02,36,15.30
2014,07,12,02,37,15.30
2014,07,12,02,38,15.30
2014,07,12,02,39,15.30
2014,07,12,02,40,15.30
2014,07,12,02,41,15.30
2014,07,12,02,42,15.30
2014,07,12,02,43,15.30
2014,07,12,02,44,15.30
2014,07,12,02,45,15.30
2014,07,12,02,46,15.30
2014,07,12,02,47,15.20
2014,07,12,02,48,15.20
2014,07,12,02,49,15.20
2014,07,12,02,50,15.20
2014,07,12,02,51,15.20
2014,07,12,02,52,15.20
2014,07,12,02,53,15.10
2014,07,12,02,54,15.10
2014,07,12,02,55,15.10
2014,07,12,02,56,15.10
2014,07,12,02,57,15.00
2014,07,12,02,58,15.00
2014,07,12,02,59,15.00
2014,07,12,03,00,15.00
2014,07,12,03,01,15.00
2014,07,12,03,02,15.00
2014,07,12,03,03,15.00
2014,07,12,03,04,15.00
2014,07,12,03,05,15.00
2014,07,12,03,06,15.00
2014,07,12,03,07,15.00
2014,07,12,03,08,15.00
2014,07,12,03,09,15.00
2014,07,12,03,10,14.90
2014,07,12,03,11,14.90
2014,07,12,03,12,14.90
2014,07,12,03,13,14.80
2014,07,12,03,14,14.80
2014,07,12,03,15,14.80
2014,07,12,03,16,14.80
2014,07,12,03,17,14.80
2014,07,12,03,18,14.70
2014,07,12,03,19,14.70
2014,07,12,03,20,14.70
2014,07,12,03,21,14.70
2014,07,12,03,22,14.60
2014,07,12,03,23,14.60
2014,07,12,03,24,14.60
2014,07,12,03,25,14.60
2014,07,12,03,26,14.50
2014,07,12,03,27,14.50
2014,07,12,03,28,14.40
2014,07,12,03,29,14.40
2014,07,12,03,30,14.40
2014,07,12,03,31,14.30
2014,07,12,03,32,14.30
2014,07,12,03,33,14.30
2014,07,12,03,34,14.30
2014,07,12,03,35,14.20
2014,07,12,03,36,14.20
2014,07,12,03,37,14.20
2014,07,12,03,38,14.20
2014,07,12,03,39,14.20
2014,07,12,03,40,14.10
2014,07,12,03,41,14.10
2014,07,12,03,42,14.10
2014,07,12,03,43,14.10
2014,07,12,03,44,14.10
2014,07,12,03,45,14.10
2014,07,12,03,49,14.10
2014,07,12,03,50,14.10
2014,07,12,03,51,14.10
2014,07,12,03,52,14.10
2014,07,12,03,53,14.10
2014,07,12,03,54,14.10
2014,07,12,03,55,14.10
2014,07,12,03,56,14.10
2014,07,12,03,57,14.10
2014,07,12,03,58,14.10
2014,07,12,03,59,14.10
2014,07,12,04,00,14.10
2014,07,12,04,01,14.10
2014,07,12,04,02,14.10
2014,07,12,04,03,14.00
2014,07,12,04,04,14.00
2014,07,12,04,05,14.00
2014,07,12,04,06,14.00
2014,07,12,04,07,13.90
2014,07,12,04,08,13.90
2014,07,12,04,09,13.90
2014,07,12,04,10,13.90
2014,07,12,04,11,13.90
2014,07,12,04,12,13.90
2014,07,12,04,13,13.90
2014,07,12,04,14,13.80
2014,07,12,04,15,13.80
2014,07,12,04,16,13.80
2014,07,12,04,17,13.80
2014,07,12,04,18,13.80
2014,07,12,04,19,13.80
2014,07,12,04,20,13.80
2014,07,12,04,21,13.80
2014,07,12,04,22,13.80
2014,07,12,04,23,13.80
2014,07,12,04,24,13.80
2014,07,12,04,25,13.80
2014,07,12,04,26,13.80
2014,07,12,04,27,13.80
2014,07,12,04,28,13.80
2014,07,12,04,29,13.80
2014,07,12,04,30,13.70
2014,07,12,04,31,13.70
2014,07,12,04,32,13.70
2014,07,12,04,33,13.70
2014,07,12,04,34,13.70
2014,07,12,04,35,13.70
2014,07,12,04,36,13.70
2014,07,12,04,37,13.70
2014,07,12,04,38,13.70
2014,07,12,04,39,13.70
2014,07,12,04,40,13.70
2014,07,12,04,41,13.70
2014,07,12,04,42,13.70
2014,07,12,04,43,13.60
2014,07,12,04,44,13.60
2014,07,12,04,45,13.60
2014,07,12,04,46,13.60
2014,07,12,04,47,13.60
2014,07,12,04,48,13.60
2014,07,12,04,49,13.60
2014,07,12,04,50,13.60
2014,07,12,04,51,13.60
2014,07,12,04,52,13.60
2014,07,12,04,53,13.70
2014,07,12,04,54,13.60
2014,07,12,04,55,13.60
2014,07,12,04,56,13.60
2014,07,12,04,57,13.60
2014,07,12,04,58,13.70
2014,07,12,04,59,13.60
2014,07,12,05,00,13.60
2014,07,12,05,01,13.60
2014,07,12,05,02,13.60
2014,07,12,05,03,13.60
2014,07,12,05,04,13.60
2014,07,12,05,05,13.60
2014,07,12,05,06,13.60
2014,07,12,05,07,13.70
2014,07,12,05,08,13.70
2014,07,12,05,09,13.70
2014,07,12,05,10,13.70
2014,07,12,05,11,13.70
2014,07,12,05,12,13.70
2014,07,12,05,13,13.70
2014,07,12,05,14,13.60
2014,07,12,05,15,13.60
2014,07,12,05,16,13.60
2014,07,12,05,17,13.60
2014,07,12,05,18,13.60
2014,07,12,05,19,13.60
2014,07,12,05,20,13.60
2014,07,12,05,21,13.60
2014,07,12,05,22,13.60
2014,07,12,05,23,13.60
2014,07,12,05,24,13.60
2014,07,12,05,25,13.60
2014,07,12,05,26,13.60
2014,07,12,05,27,13.60
2014,07,12,05,28,13.50
2014,07,12,05,29,13.50
2014,07,12,05,30,13.50
2014,07,12,05,31,13.50
2014,07,12,05,32,13.50
2014,07,12,05,33,13.50
2014,07,12,05,34,13.50
2014,07,12,05,35,13.50
2014,07,12,05,36,13.50
2014,07,12,05,37,13.50
2014,07,12,05,38,13.50
2014,07,12,05,39,13.50
2014,07,12,05,40,13.50
2014,07,12,05,41,13.50
2014,07,12,05,42,13.50
2014,07,12,05,43,13.50
2014,07,12,05,44,13.50
2014,07,12,05,45,13.50
2014,07,12,05,46,13.50
2014,07,12,05,47,13.50
2014,07,12,05,48,13.50
2014,07,12,05,49,13.50
2014,07,12,05,50,13.50
2014,07,12,05,51,13.60
2014,07,12,05,52,13.60
2014,07,12,05,53,13.60
2014,07,12,05,54,13.60
2014,07,12,05,55,13.60
2014,07,12,05,56,13.60
2014,07,12,05,57,13.60
2014,07,12,05,58,13.60
2014,07,12,05,59,13.60
2014,07,12,06,00,13.60
2014,07,12,06,01,13.60
2014,07,12,06,02,13.60
2014,07,12,06,03,13.70
2014,07,12,06,04,13.70
2014,07,12,06,05,13.70
2014,07,12,06,06,13.70
2014,07,12,06,07,13.80
2014,07,12,06,08,13.80
2014,07,12,06,09,13.80
2014,07,12,06,10,13.80
2014,07,12,06,11,13.80
2014,07,12,06,12,13.90
2014,07,12,06,13,13.90
2014,07,12,06,14,13.90
2014,07,12,06,15,13.90
2014,07,12,06,16,13.90
2014,07,12,06,17,14.00
2014,07,12,06,18,14.00
2014,07,12,06,19,14.10
2014,07,12,06,20,14.10
2014,07,12,06,21,14.10
2014,07,12,06,22,14.20
2014,07,12,06,23,14.20
2014,07,12,06,24,14.20
2014,07,12,06,25,14.30
2014,07,12,06,26,14.30
2014,07,12,06,27,14.30
2014,07,12,06,28,14.40
2014,07,12,06,29,14.40
2014,07,12,06,30,14.40
2014,07,12,06,31,14.50
2014,07,12,06,32,14.60
2014,07,12,06,33,14.60
2014,07,12,06,34,14.70
2014,07,12,06,35,14.80
2014,07,12,06,36,14.90
2014,07,12,06,37,15.00
2014,07,12,06,38,15.00
2014,07,12,06,39,15.10
2014,07,12,06,40,15.20
2014,07,12,06,41,15.30
2014,07,12,06,42,15.30
2014,07,12,06,43,15.30
2014,07,12,06,44,15.30
2014,07,12,06,45,15.40
2014,07,12,06,46,15.40
2014,07,12,06,47,15.50
2014,07,12,06,48,15.60
2014,07,12,06,49,15.70
2014,07,12,06,50,15.80
2014,07,12,06,51,15.90
2014,07,12,06,52,16.00
2014,07,12,06,53,16.10
2014,07,12,06,54,16.20
2014,07,12,06,55,16.30
2014,07,12,06,56,16.40
2014,07,12,06,57,16.50
2014,07,12,06,58,16.60
2014,07,12,06,59,16.70
2014,07,12,07,00,16.80
2014,07,12,07,01,16.90
2014,07,12,07,02,17.00
2014,07,12,07,03,17.10
2014,07,12,07,04,17.30
2014,07,12,07,05,17.40
2014,07,12,07,06,17.50
2014,07,12,07,07,17.60
2014,07,12,07,08,17.70
2014,07,12,07,09,17.80
2014,07,12,07,10,17.80
2014,07,12,07,11,17.80
2014,07,12,07,12,17.80
2014,07,12,07,13,17.80
2014,07,12,07,14,17.80
2014,07,12,07,15,17.80
2014,07,12,07,16,17.90
2014,07,12,07,17,18.00
2014,07,12,07,18,18.10
2014,07,12,07,19,18.20
2014,07,12,07,20,18.30
2014,07,12,07,21,18.40
2014,07,12,07,22,18.50
2014,07,12,07,23,18.60
2014,07,12,07,24,18.60
2014,07,12,07,25,18.70
2014,07,12,07,26,18.70
2014,07,12,07,27,18.80
2014,07,12,07,28,18.80
2014,07,12,07,29,18.80
2014,07,12,07,30,18.90
2014,07,12,07,31,18.90
2014,07,12,07,32,19.00
2014,07,12,07,33,19.00
2014,07,12,07,34,19.10
2014,07,12,07,35,19.10
2014,07,12,07,36,19.00
2014,07,12,07,37,19.00
2014,07,12,07,38,19.10
2014,07,12,07,39,19.10
2014,07,12,07,40,19.20
2014,07,12,07,41,19.30
2014,07,12,07,42,19.50
2014,07,12,07,43,19.60
2014,07,12,07,44,19.70
2014,07,12,07,45,19.90
2014,07,12,07,46,20.00
2014,07,12,07,47,20.10
2014,07,12,07,48,20.20
2014,07,12,07,49,20.30
2014,07,12,07,50,20.40
2014,07,12,07,51,20.40
2014,07,12,07,52,20.40
2014,07,12,07,53,20.40
2014,07,12,07,54,20.40
2014,07,12,07,55,20.40
2014,07,12,07,56,20.40
2014,07,12,07,57,20.40
2014,07,12,07,58,20.40
2014,07,12,07,59,20.40
2014,07,12,08,00,20.40
2014,07,12,08,01,20.50
2014,07,12,08,02,20.50
2014,07,12,08,03,20.50
2014,07,12,08,04,20.60
2014,07,12,08,05,20.60
2014,07,12,08,06,20.80
2014,07,12,08,07,20.80
2014,07,12,08,08,20.90
2014,07,12,08,09,21.10
2014,07,12,08,10,21.20
2014,07,12,08,11,21.30
2014,07,12,08,12,21.50
2014,07,12,08,13,21.60
2014,07,12,08,14,21.70
2014,07,12,08,15,21.70
2014,07,12,08,16,21.80
2014,07,12,08,17,21.80
2014,07,12,08,18,21.70
2014,07,12,08,19,21.60
2014,07,12,08,20,21.50
2014,07,12,08,21,21.40
2014,07,12,08,22,21.30
2014,07,12,08,23,21.20
2014,07,12,08,24,21.10
2014,07,12,08,25,21.00
2014,07,12,08,26,21.00
2014,07,12,08,27,20.90
2014,07,12,08,28,20.70
2014,07,12,08,29,20.60
2014,07,12,08,30,20.50
2014,07,12,08,31,20.30
2014,07,12,08,32,20.20
2014,07,12,08,33,20.10
2014,07,12,08,34,19.90
2014,07,12,08,35,19.80
2014,07,12,08,36,19.70
2014,07,12,08,37,19.60
2014,07,12,08,38,19.50
2014,07,12,08,39,19.50
2014,07,12,08,40,19.40
2014,07,12,08,41,19.40
2014,07,12,08,42,19.50
2014,07,12,08,43,19.50
2014,07,12,08,44,19.50
2014,07,12,08,45,19.50
2014,07,12,08,46,19.50
2014,07,12,08,47,19.60
2014,07,12,08,48,19.60
2014,07,12,08,49,19.70
2014,07,12,08,50,19.70
2014,07,12,08,51,19.80
2014,07,12,08,52,19.90
2014,07,12,08,53,20.00
2014,07,12,08,54,20.00
2014,07,12,08,55,20.10
2014,07,12,08,56,20.20
2014,07,12,08,57,20.30
2014,07,12,08,58,20.30
2014,07,12,08,59,20.30
2014,07,12,09,00,20.30
2014,07,12,09,01,20.30
2014,07,12,09,02,20.30
2014,07,12,09,03,20.20
2014,07,12,09,04,20.20
2014,07,12,09,05,20.20
2014,07,12,09,06,20.30
2014,07,12,09,07,20.30
2014,07,12,09,08,20.40
2014,07,12,09,09,20.60
2014,07,12,09,10,20.70
2014,07,12,09,11,20.90
2014,07,12,09,12,21.00
2014,07,12,09,13,21.20
2014,07,12,09,14,21.30
2014,07,12,09,15,21.50
2014,07,12,09,16,21.60
2014,07,12,09,17,21.60
2014,07,12,09,18,21.70
2014,07,12,09,19,21.70
2014,07,12,09,20,21.80
2014,07,12,09,21,21.80
2014,07,12,09,22,21.80
2014,07,12,09,23,21.90
2014,07,12,09,24,22.00
2014,07,12,09,25,22.00
2014,07,12,09,26,22.10
2014,07,12,09,27,22.10
2014,07,12,09,28,22.20
2014,07,12,09,29,22.30
2014,07,12,09,30,22.40
2014,07,12,09,31,22.60
2014,07,12,09,32,22.60
2014,07,12,09,33,22.70
2014,07,12,09,34,22.70
2014,07,12,09,35,22.70
2014,07,12,09,36,22.70
2014,07,12,09,37,22.70
2014,07,12,09,38,22.60
2014,07,12,09,39,22.50
2014,07,12,09,40,22.40
2014,07,12,09,41,22.30
2014,07,12,09,42,22.20
2014,07,12,09,43,22.20
2014,07,12,09,44,22.20
2014,07,12,09,45,22.20
2014,07,12,09,46,22.20
2014,07,12,09,47,22.20
2014,07,12,09,48,22.10
2014,07,12,09,49,22.10
2014,07,12,09,50,22.10
2014,07,12,09,51,22.20
2014,07,12,09,52,22.10
2014,07,12,09,53,22.10
2014,07,12,09,54,22.10
2014,07,12,09,55,22.10
2014,07,12,09,56,22.20
2014,07,12,09,57,22.20
2014,07,12,09,58,22.20
2014,07,12,09,59,22.30
2014,07,12,10,00,22.30
2014,07,12,10,01,22.40
2014,07,12,10,02,22.40
2014,07,12,10,03,22.40
2014,07,12,10,04,22.50
2014,07,12,10,05,22.60
2014,07,12,10,06,22.80
2014,07,12,10,07,22.90
2014,07,12,10,08,23.00
2014,07,12,10,09,23.10
2014,07,12,10,10,23.10
2014,07,12,10,11,23.10
2014,07,12,10,12,23.10
2014,07,12,10,13,23.10
2014,07,12,10,14,23.10
2014,07,12,10,15,23.10
2014,07,12,10,16,23.10
2014,07,12,10,17,23.10
2014,07,12,10,18,23.20
2014,07,12,10,19,23.30
2014,07,12,10,20,23.30
2014,07,12,10,21,23.40
2014,07,12,10,22,23.40
2014,07,12,10,23,23.40
2014,07,12,10,24,23.40
2014,07,12,10,25,23.40
2014,07,12,10,26,23.40
2014,07,12,10,27,23.40
2014,07,12,10,28,23.40
2014,07,12,10,29,23.50
2014,07,12,10,30,23.50
2014,07,12,10,31,23.60
2014,07,12,10,32,23.60
2014,07,12,10,33,23.70
2014,07,12,10,34,23.70
2014,07,12,10,35,23.70
2014,07,12,10,36,23.80
2014,07,12,10,37,23.80
2014,07,12,10,38,23.90
2014,07,12,10,39,24.00
2014,07,12,10,40,24.00
2014,07,12,10,41,24.10
2014,07,12,10,42,24.20
2014,07,12,10,43,24.30
2014,07,12,10,44,24.30
2014,07,12,10,45,24.30
2014,07,12,10,46,24.20
2014,07,12,10,47,24.20
2014,07,12,10,48,24.10
2014,07,12,10,49,24.10
2014,07,12,10,50,24.10
2014,07,12,10,51,24.10
2014,07,12,10,52,24.20
2014,07,12,10,53,24.20
2014,07,12,10,54,24.20
2014,07,12,10,55,24.30
2014,07,12,10,56,24.30
2014,07,12,10,57,24.40
2014,07,12,10,58,24.40
2014,07,12,10,59,24.50
2014,07,12,11,00,24.50
2014,07,12,11,01,24.50
2014,07,12,11,02,24.50
2014,07,12,11,03,24.50
2014,07,12,11,04,24.40
2014,07,12,11,05,24.40
2014,07,12,11,06,24.40
2014,07,12,11,07,24.30
2014,07,12,11,08,24.10
2014,07,12,11,09,24.00
2014,07,12,11,10,24.00
2014,07,12,11,11,24.00
2014,07,12,11,12,24.00
2014,07,12,11,13,23.90
2014,07,12,11,14,23.90
2014,07,12,11,15,23.90
2014,07,12,11,16,24.00
2014,07,12,11,17,24.00
2014,07,12,11,18,24.00
2014,07,12,11,19,24.10
2014,07,12,11,20,24.10
2014,07,12,11,21,24.20
2014,07,12,11,22,24.20
2014,07,12,11,23,24.20
2014,07,12,11,24,24.30
2014,07,12,11,25,24.30
2014,07,12,11,26,24.30
2014,07,12,11,27,24.40
2014,07,12,11,28,24.40
2014,07,12,11,29,24.50
2014,07,12,11,30,24.50
2014,07,12,11,31,24.50
2014,07,12,11,32,24.40
2014,07,12,11,33,24.40
2014,07,12,11,34,24.40
2014,07,12,11,35,24.30
2014,07,12,11,36,24.20
2014,07,12,11,37,24.20
2014,07,12,11,38,24.20
2014,07,12,11,39,24.20
2014,07,12,11,40,24.10
2014,07,12,11,41,24.00
2014,07,12,11,42,24.10
2014,07,12,11,43,24.10
2014,07,12,11,44,24.10
2014,07,12,11,45,24.10
2014,07,12,11,46,24.10
2014,07,12,11,47,24.20
2014,07,12,11,48,24.30
2014,07,12,11,49,24.40
2014,07,12,11,50,24.50
2014,07,12,11,51,24.60
2014,07,12,11,52,24.60
2014,07,12,11,53,24.70
2014,07,12,11,54,24.80
2014,07,12,11,55,25.00
2014,07,12,11,56,25.20
2014,07,12,11,57,25.40
2014,07,12,11,58,25.50
2014,07,12,11,59,25.60
2014,07,12,12,00,25.60
2014,07,12,12,01,25.60
2014,07,12,12,02,25.60
2014,07,12,12,03,25.70
2014,07,12,12,04,25.70
2014,07,12,12,05,25.70
2014,07,12,12,06,25.70
2014,07,12,12,07,25.70
2014,07,12,12,08,25.60
2014,07,12,12,09,25.50
2014,07,12,12,10,25.50
2014,07,12,12,11,25.40
2014,07,12,12,12,25.30
2014,07,12,12,13,25.20
2014,07,12,12,14,25.10
2014,07,12,12,15,25.10
2014,07,12,12,16,25.00
2014,07,12,12,17,25.00
2014,07,12,12,18,25.00
2014,07,12,12,19,25.00
2014,07,12,12,20,24.90
2014,07,12,12,21,24.90
2014,07,12,12,22,24.80
2014,07,12,12,23,24.80
2014,07,12,12,24,24.80
2014,07,12,12,25,24.80
2014,07,12,12,26,24.80
2014,07,12,12,27,24.80
2014,07,12,12,28,24.90
2014,07,12,12,29,24.90
2014,07,12,12,30,24.80
2014,07,12,12,31,24.90
2014,07,12,12,32,24.90
2014,07,12,12,33,24.90
2014,07,12,12,34,24.90
2014,07,12,12,35,24.80
2014,07,12,12,36,24.80
2014,07,12,12,37,24.80
2014,07,12,12,38,24.80
2014,07,12,12,39,24.80
2014,07,12,12,40,24.90
2014,07,12,12,41,25.10
2014,07,12,12,42,25.10
2014,07,12,12,43,25.20
2014,07,12,12,44,25.20
2014,07,12,12,45,25.40
2014,07,12,12,46,25.50
2014,07,12,12,47,25.60
2014,07,12,12,48,25.70
2014,07,12,12,49,25.80
2014,07,12,12,50,25.80
2014,07,12,12,51,25.90
2014,07,12,12,52,25.80
2014,07,12,12,53,25.80
2014,07,12,12,54,25.80
2014,07,12,12,55,25.80
2014,07,12,12,56,25.80
2014,07,12,12,57,25.70
2014,07,12,12,58,25.70
2014,07,12,12,59,25.70
2014,07,12,13,00,25.70
2014,07,12,13,01,25.70
2014,07,12,13,02,25.70
2014,07,12,13,03,25.80
2014,07,12,13,04,25.80
2014,07,12,13,05,25.80
2014,07,12,13,06,25.90
2014,07,12,13,07,26.00
2014,07,12,13,08,26.10
2014,07,12,13,09,26.30
2014,07,12,13,10,26.40
2014,07,12,13,11,26.50
2014,07,12,13,12,26.70
2014,07,12,13,13,26.70
2014,07,12,13,14,26.80
2014,07,12,13,15,26.80
2014,07,12,13,16,26.90
2014,07,12,13,17,26.90
2014,07,12,13,18,26.90
2014,07,12,13,19,26.80
2014,07,12,13,20,26.80
2014,07,12,13,21,26.90
2014,07,12,13,22,26.90
2014,07,12,13,23,26.90
2014,07,12,13,24,26.80
2014,07,12,13,25,26.80
2014,07,12,13,26,26.80
2014,07,12,13,27,26.70
2014,07,12,13,28,26.70
2014,07,12,13,29,26.70
2014,07,12,13,30,26.70
2014,07,12,13,31,26.70
2014,07,12,13,32,26.70
2014,07,12,13,33,26.70
2014,07,12,13,34,26.70
2014,07,12,13,35,26.70
2014,07,12,13,36,26.70
2014,07,12,13,37,26.70
2014,07,12,13,38,26.80
2014,07,12,13,39,26.90
2014,07,12,13,40,27.00
2014,07,12,13,41,27.00
2014,07,12,13,42,27.10
2014,07,12,13,43,27.20
2014,07,12,13,44,27.20
2014,07,12,13,45,27.30
2014,07,12,13,46,27.30
2014,07,12,13,47,27.30
2014,07,12,13,48,27.10
2014,07,12,13,49,27.00
2014,07,12,13,50,26.90
2014,07,12,13,51,26.90
2014,07,12,13,52,26.90
2014,07,12,13,53,27.00
2014,07,12,13,54,27.00
2014,07,12,13,55,27.10
2014,07,12,13,56,27.10
2014,07,12,13,57,27.10
2014,07,12,13,58,27.00
2014,07,12,13,59,26.90
2014,07,12,14,00,26.90
2014,07,12,14,01,26.80
2014,07,12,14,02,26.80
2014,07,12,14,03,26.80
2014,07,12,14,04,26.70
2014,07,12,14,05,26.70
2014,07,12,14,06,26.60
2014,07,12,14,07,26.60
2014,07,12,14,08,26.60
2014,07,12,14,09,26.70
2014,07,12,14,10,26.80
2014,07,12,14,11,26.90
2014,07,12,14,12,26.90
2014,07,12,14,13,26.90
2014,07,12,14,14,26.90
2014,07,12,14,15,26.90
2014,07,12,14,16,27.00
2014,07,12,14,17,27.10
2014,07,12,14,18,27.10
2014,07,12,14,19,27.20
2014,07,12,14,20,27.20
2014,07,12,14,21,27.10
2014,07,12,14,22,26.90
2014,07,12,14,23,26.70
2014,07,12,14,24,26.50
2014,07,12,14,25,26.40
2014,07,12,14,26,26.40
2014,07,12,14,27,26.40
2014,07,12,14,28,26.50
2014,07,12,14,29,26.60
2014,07,12,14,30,26.70
2014,07,12,14,31,26.80
2014,07,12,14,32,26.90
2014,07,12,14,33,27.10
2014,07,12,14,34,27.20
2014,07,12,14,35,27.30
2014,07,12,14,36,27.40
2014,07,12,14,37,27.60
2014,07,12,14,38,27.70
2014,07,12,14,39,27.80
2014,07,12,14,40,28.00
2014,07,12,14,41,28.20
2014,07,12,14,42,28.30
2014,07,12,14,43,28.50
2014,07,12,14,44,28.60
2014,07,12,14,45,28.70
2014,07,12,14,46,28.70
2014,07,12,14,47,28.70
2014,07,12,14,48,28.70
2014,07,12,14,49,28.70
2014,07,12,14,50,28.60
2014,07,12,14,51,28.50
2014,07,12,14,52,28.40
2014,07,12,14,53,28.40
2014,07,12,14,54,28.30
2014,07,12,14,55,28.30
2014,07,12,14,56,28.30
2014,07,12,14,57,28.30
2014,07,12,14,58,28.20
2014,07,12,14,59,28.20
2014,07,12,15,00,28.30
2014,07,12,15,01,28.30
2014,07,12,15,02,28.30
2014,07,12,15,03,28.30
2014,07,12,15,04,28.20
2014,07,12,15,05,28.10
2014,07,12,15,06,27.90
2014,07,12,15,07,27.80
2014,07,12,15,08,27.80
2014,07,12,15,09,27.80
2014,07,12,15,10,27.90
2014,07,12,15,11,28.00
2014,07,12,15,12,28.10
2014,07,12,15,13,28.10
2014,07,12,15,14,28.20
2014,07,12,15,15,28.20
2014,07,12,15,16,28.20
2014,07,12,15,17,28.10
2014,07,12,15,18,28.00
2014,07,12,15,19,27.90
2014,07,12,15,20,27.90
2014,07,12,15,21,27.90
2014,07,12,15,22,27.90
2014,07,12,15,23,27.90
2014,07,12,15,24,28.00
2014,07,12,15,25,28.00
2014,07,12,15,26,28.00
2014,07,12,15,27,28.00
2014,07,12,15,28,28.00
2014,07,12,15,29,27.90
2014,07,12,15,30,27.80
2014,07,12,15,31,27.80
2014,07,12,15,32,27.80
2014,07,12,15,33,27.80
2014,07,12,15,34,27.80
2014,07,12,15,35,27.80
2014,07,12,15,36,27.90
2014,07,12,15,37,28.00
2014,07,12,15,38,28.10
2014,07,12,15,39,28.20
2014,07,12,15,40,28.30
2014,07,12,15,41,28.50
2014,07,12,15,42,28.50
2014,07,12,15,43,28.60
2014,07,12,15,44,28.60
2014,07,12,15,45,28.60
2014,07,12,15,46,28.60
2014,07,12,15,47,28.60
2014,07,12,15,48,28.60
2014,07,12,15,49,28.60
2014,07,12,15,50,28.60
2014,07,12,15,51,28.60
2014,07,12,15,52,28.50
2014,07,12,15,53,28.40
2014,07,12,15,54,28.40
2014,07,12,15,55,28.40
2014,07,12,15,56,28.40
2014,07,12,15,57,28.40
2014,07,12,15,58,28.40
2014,07,12,15,59,28.50
2014,07,12,16,00,28.60
2014,07,12,16,01,28.60
2014,07,12,16,02,28.70
2014,07,12,16,03,28.80
2014,07,12,16,04,28.80
2014,07,12,16,05,28.80
2014,07,12,16,06,28.80
2014,07,12,16,07,28.70
2014,07,12,16,08,28.70
2014,07,12,16,09,28.70
2014,07,12,16,10,28.70
2014,07,12,16,11,28.60
2014,07,12,16,12,28.60
2014,07,12,16,13,28.50
2014,07,12,16,14,28.40
2014,07,12,16,15,28.40
2014,07,12,16,16,28.40
2014,07,12,16,17,28.30
2014,07,12,16,18,28.30
2014,07,12,16,19,28.20
2014,07,12,16,20,28.20
2014,07,12,16,21,28.30
2014,07,12,16,22,28.30
2014,07,12,16,23,28.30
2014,07,12,16,24,28.30
2014,07,12,16,25,28.20
2014,07,12,16,26,28.10
2014,07,12,16,27,28.10
2014,07,12,16,28,28.10
2014,07,12,16,29,28.20
2014,07,12,16,30,28.20
2014,07,12,16,31,28.20
2014,07,12,16,32,28.20
2014,07,12,16,33,28.20
2014,07,12,16,34,28.10
2014,07,12,16,35,28.20
2014,07,12,16,36,28.20
2014,07,12,16,37,28.20
2014,07,12,16,38,28.10
2014,07,12,16,39,28.10
2014,07,12,16,40,28.10
2014,07,12,16,41,28.10
2014,07,12,16,42,28.00
2014,07,12,16,43,28.10
2014,07,12,16,44,28.10
2014,07,12,16,45,28.20
2014,07,12,16,46,28.30
2014,07,12,16,47,28.30
2014,07,12,16,48,28.20
2014,07,12,16,49,28.10
2014,07,12,16,50,28.00
2014,07,12,16,51,27.90
2014,07,12,16,52,28.00
2014,07,12,16,53,28.20
2014,07,12,16,54,28.20
2014,07,12,16,55,28.10
2014,07,12,16,56,28.10
2014,07,12,16,57,28.10
2014,07,12,16,58,28.10
2014,07,12,16,59,28.10
2014,07,12,17,00,27.90
2014,07,12,17,01,27.80
2014,07,12,17,02,27.70
2014,07,12,17,03,27.70
2014,07,12,17,04,27.70
2014,07,12,17,05,27.70
2014,07,12,17,06,27.90
2014,07,12,17,07,27.90
2014,07,12,17,08,28.00
2014,07,12,17,09,28.00
2014,07,12,17,10,28.10
2014,07,12,17,11,28.10
2014,07,12,17,12,28.00
2014,07,12,17,13,28.00
2014,07,12,17,14,27.90
2014,07,12,17,15,28.00
2014,07,12,17,16,28.00
2014,07,12,17,17,28.00
2014,07,12,17,18,28.00
2014,07,12,17,19,27.90
2014,07,12,17,20,27.80
2014,07,12,17,21,27.70
2014,07,12,17,22,27.70